[[{"header":{"parameterUnit":"m.s-1","parameterCategory":1,"la1":30.2991,"la2":30.254,"lo1":-89.0895,"lo2":-89.0444,"dy":0.0017,"dx":0.0017,"nx":28,"ny":28,"refTime":"2025-09-05T03:00:00:Z","depth":0,"parameterNumber":2,"parameterNumberName":"U-component_of_WINDS"},"data":[0,0,0,0,0,0,0,0,0,0,0,0,0,0,0,0,0,0,0,0,0,0,0,0,0,0,0,0,0,0,0,0,0,0,0,0,0,0,0,0,0,0,0,0,0,0,0,0,0,0,0,0,0,0,0,0,0,0,1.9229,1.9229,0,1.9207,1.9207,1.9207,1.9215,1.9216,1.9216,1.9217,1.919,1.9189,1.9188,0,0,0,0,0,0,0,0,0,0,0,0,0,1.9277,1.9276,1.9229,1.9229,1.9229,1.9207,1.9207,1.9207,1.9215,1.9216,1.9217,1.9217,1.9191,1.9189,1.9188,0,0,0,0,0,0,0,0,0,0,0,0,0,1.9255,1.9276,1.9229,1.9231,1.9231,1.9207,1.9207,1.9207,1.9215,1.9216,1.9217,1.9217,1.9191,1.9189,1.9187,1.916,0,0,1.9182,1.9181,0,0,0,0,0,0,0,0,1.9257,1.9254,1.9231,1.9231,1.923,1.9215,1.9214,1.9191,1.9215,1.9221,1.9217,1.9218,1.9197,1.9195,1.9189,1.9159,1.9158,1.9182,1.9181,1.918,1.9179,0,0,0,0,0,0,0,1.9258,1.9255,1.922,1.923,1.923,1.9232,1.9229,1.921,1.9205,1.922,1.9221,1.9219,1.9197,1.9191,1.9189,1.9158,1.9182,1.918,1.9179,1.9178,1.9105,1.9105,0,0,0,0,0,0,1.926,1.9256,1.9221,1.922,1.9246,1.923,1.9228,1.9219,1.9205,1.9204,1.9218,1.9219,1.9194,1.9191,1.9188,1.9155,1.918,1.9178,1.9177,1.9106,1.9105,1.9104,0,0,0,0,0,0,1.9261,1.9257,1.9222,1.9238,1.9234,1.9228,1.9219,1.9218,1.9212,1.9203,1.9202,1.9212,1.9194,1.919,1.9168,1.9155,1.9177,1.9176,1.9107,1.9106,1.9105,1.9091,0,0,0,0,0,0,1.9262,1.9257,1.9247,1.9238,1.9233,1.9203,1.9218,1.9217,1.9209,1.921,1.9198,1.9196,1.9194,1.917,1.9166,1.9153,1.9174,1.9108,1.9107,1.9105,1.9092,1.9089,1.9086,0,0,0,0,0,1.9264,1.9243,1.9247,1.9242,1.9221,1.9202,1.9199,1.9199,1.9208,1.9197,1.9193,1.9197,1.9157,1.9168,1.9163,1.9149,1.9109,1.9107,1.9105,1.9094,1.909,1.9086,0,0,0,0,0,0,1.9249,1.9242,1.9246,1.9221,1.9213,1.9204,1.9191,1.9195,1.9182,1.9184,1.9183,1.918,1.9157,1.9151,1.9163,1.9123,1.9134,1.9131,1.9127,1.9123,1.9121,1.9122,1.9173,0,0,0,0,0,1.9243,1.923,1.9224,1.9203,1.9199,1.9196,1.9188,1.9188,1.9179,1.9175,1.9168,1.9157,1.9143,1.9133,1.9119,1.9092,1.9089,1.908,1.9077,1.9075,1.9072,1.9058,1.9054,1.9098,1.9098,1.9098,0,0,1.923,1.9225,1.9216,1.92,1.9193,1.9179,1.9192,1.9176,1.9165,1.9172,1.915,1.9145,1.9134,1.9109,1.9098,1.9103,1.9059,1.9072,1.9071,1.9069,1.9055,1.9051,1.9047,1.9097,1.9097,1.9097,0,0,1.9199,1.9194,1.9176,1.917,1.9161,1.9159,1.9155,1.9146,1.9144,1.9123,1.9128,1.9115,1.9089,1.9081,1.9074,1.9043,1.9046,1.9038,1.9022,1.9008,1.9005,1.9002,1.899,1.8986,1.9035,1.9035,1.9035,0,1.9184,1.9164,1.9166,1.9151,1.9143,1.9151,1.9133,1.9126,1.9112,1.9106,1.9114,1.9083,1.9076,1.905,1.9043,1.9036,1.9031,1.9039,1.9005,1.9002,1.8999,1.8988,1.8984,1.9034,1.9035,1.9035,1.9035,0,1.9145,1.9131,1.9118,1.9106,1.9098,1.9081,1.908,1.9071,1.9073,1.9071,1.905,1.9042,1.9027,1.9021,1.9022,1.8996,1.8999,1.9006,1.9017,1.8994,1.8984,1.898,1.9033,1.9033,1.9034,1.9034,0,0,1.9102,1.9094,1.9089,1.9084,1.9076,1.9064,1.9048,1.9035,1.9027,1.9018,1.9004,1.8984,1.8991,1.8982,1.8983,1.8971,1.8947,1.8979,1.8979,1.8973,1.8917,1.8911,1.8907,1.895,1.8949,1.8949,1.8918,0,1.907,1.9043,1.9046,1.9019,1.9006,1.9014,1.9,1.8993,1.8991,1.8979,1.8977,1.8962,1.8972,1.8968,1.8956,1.8952,1.8935,1.8955,1.8936,1.8935,1.8937,1.8901,1.8895,1.8866,1.8914,1.8913,1.8913,0,1.9028,1.902,1.8993,1.8988,1.8982,1.8969,1.8959,1.8948,1.894,1.8939,1.8931,1.8935,1.8918,1.8931,1.8908,1.8921,1.8914,1.8911,1.891,1.8907,1.8921,1.8896,1.8857,1.8852,1.8906,1.8907,1.8907,0,1.8999,1.8981,1.8962,1.8958,1.8952,1.8943,1.8939,1.8933,1.8925,1.8916,1.8911,1.8899,1.8892,1.8883,1.8882,1.8892,1.8859,1.8872,1.8857,1.8857,1.8848,1.8848,1.8806,1.8845,1.8845,1.8845,1.8846,0,1.8962,1.8945,1.8949,1.8938,1.8919,1.8923,1.8904,1.8902,1.8896,1.8884,1.889,1.8878,1.888,1.8868,1.8867,1.8848,1.8845,1.8844,1.8843,1.8842,1.8842,1.8836,1.8838,1.8844,1.8845,1.8845,1.8845,0,1.8926,1.8928,1.8908,1.8905,1.8904,1.889,1.8887,1.8876,1.8875,1.886,1.8856,1.8855,1.8842,1.8841,1.8825,1.8825,1.8801,1.8804,1.8804,1.8804,1.8789,1.879,1.874,1.8734,1.8778,1.8778,1.8778,0,1.8901,1.8889,1.8885,1.8878,1.8875,1.8863,1.8857,1.8861,1.8853,1.8845,1.8835,1.8822,1.8812,1.879,1.8787,1.8775,1.8777,1.876,1.8775,1.8774,1.8776,1.8776,1.8775,1.8757,1.8756,1.8756,1.8756,0,1.8858,1.8861,1.8851,1.8843,1.8835,1.8828,1.8821,1.8815,1.8818,1.881,1.8797,1.8789,1.8774,1.8762,1.8751,1.8746,1.8751,1.8752,1.8747,1.8745,1.8746,1.8745,1.8796,1.8752,1.8752,1.8753,1.8753,1.8753,1.8827,1.8816,1.8813,1.8802,1.8798,1.8793,1.8783,1.8782,1.8772,1.8761,1.8764,1.875,1.8743,1.8729,1.8724,1.8713,1.8718,1.8712,1.871,1.8709,1.8707,1.8749,1.8711,1.8711,1.8711,1.8711,1.8711,0,1.8784,1.8782,1.8773,1.8765,1.8757,1.8765,1.8759,1.8751,1.8739,1.8733,1.8724,1.871,1.8698,1.8696,1.8684,1.8676,1.8677,1.8672,1.8672,1.8671,1.8703,1.8707,1.8671,1.8671,1.8671,1.8671,1.8671,1.8671,1.876,1.8743,1.8745,1.8727,1.8725,1.8712,1.8708,1.8703,1.8699,1.8683,1.8674,1.8673,1.8669,1.8658,1.8648,1.8647,1.8642,1.8636,1.8636,1.8665,1.8669,1.8673,1.8677,1.8635,1.8635,1.8605,1.8605,1.8605]},{"header":{"parameterUnit":"m.s-1","parameterCategory":1,"la1":30.2991,"la2":30.254,"lo1":-89.0895,"lo2":-89.0444,"dy":0.0017,"dx":0.0017,"nx":28,"ny":28,"refTime":"2025-09-05T03:00:00:Z","depth":0,"parameterNumber":3,"parameterNumberName":"V-component_of_WINDS"},"data":[0,0,0,0,0,0,0,0,0,0,0,0,0,0,0,0,0,0,0,0,0,0,0,0,0,0,0,0,0,0,0,0,0,0,0,0,0,0,0,0,0,0,0,0,0,0,0,0,0,0,0,0,0,0,0,0,0,0,-2.4621,-2.4622,0,-2.4682,-2.4683,-2.4683,-2.4686,-2.4685,-2.4684,-2.4684,-2.4745,-2.4747,-2.475,0,0,0,0,0,0,0,0,0,0,0,0,0,-2.4506,-2.4509,-2.4621,-2.4622,-2.4622,-2.4682,-2.4683,-2.4684,-2.4686,-2.4685,-2.4684,-2.4683,-2.4744,-2.4747,-2.475,0,0,0,0,0,0,0,0,0,0,0,0,0,-2.4561,-2.4509,-2.4621,-2.4631,-2.4632,-2.4682,-2.4683,-2.4684,-2.4686,-2.4685,-2.4684,-2.4683,-2.4743,-2.4747,-2.475,-2.4793,0,0,-2.4761,-2.4762,0,0,0,0,0,0,0,0,-2.4558,-2.4565,-2.4629,-2.463,-2.4632,-2.4675,-2.4665,-2.472,-2.4687,-2.4666,-2.4684,-2.4683,-2.4723,-2.4728,-2.4742,-2.4796,-2.4799,-2.4761,-2.4763,-2.4765,-2.4766,0,0,0,0,0,0,0,-2.4554,-2.4562,-2.4645,-2.463,-2.4632,-2.4632,-2.4639,-2.4675,-2.4699,-2.4667,-2.4668,-2.4675,-2.4723,-2.4738,-2.4743,-2.48,-2.4761,-2.4764,-2.4766,-2.4768,-2.4894,-2.4896,0,0,0,0,0,0,-2.4548,-2.4559,-2.4643,-2.4647,-2.4591,-2.4635,-2.4643,-2.4662,-2.4699,-2.4704,-2.4676,-2.4675,-2.4733,-2.4739,-2.4745,-2.4799,-2.4765,-2.4768,-2.477,-2.4893,-2.4895,-2.4896,0,0,0,0,0,0,-2.4546,-2.4556,-2.4641,-2.4603,-2.4614,-2.4638,-2.4661,-2.4664,-2.4679,-2.4706,-2.471,-2.4687,-2.4732,-2.474,-2.4782,-2.4801,-2.4769,-2.4773,-2.4892,-2.4894,-2.4895,-2.4907,0,0,0,0,0,0,-2.4542,-2.4555,-2.4571,-2.4604,-2.4616,-2.4676,-2.4662,-2.4666,-2.4685,-2.4685,-2.4717,-2.4721,-2.4732,-2.4777,-2.4785,-2.4806,-2.4775,-2.489,-2.4892,-2.4895,-2.4905,-2.4909,-2.4913,0,0,0,0,0,-2.4538,-2.4571,-2.4572,-2.4582,-2.4637,-2.4677,-2.4685,-2.4697,-2.4687,-2.4704,-2.4721,-2.472,-2.4798,-2.4781,-2.4791,-2.4812,-2.4889,-2.4892,-2.4895,-2.4903,-2.4908,-2.4913,0,0,0,0,0,0,-2.454,-2.4576,-2.4577,-2.4621,-2.4647,-2.4678,-2.4699,-2.4702,-2.473,-2.4728,-2.4741,-2.4749,-2.479,-2.4805,-2.4786,-2.4857,-2.4842,-2.4847,-2.4845,-2.485,-2.4854,-2.485,-2.4778,0,0,0,0,0,-2.4546,-2.4576,-2.4605,-2.4642,-2.4654,-2.4675,-2.4693,-2.47,-2.4726,-2.4737,-2.4757,-2.4782,-2.4813,-2.4832,-2.4861,-2.4907,-2.4915,-2.4927,-2.4931,-2.4934,-2.4938,-2.4965,-2.4971,-2.4906,-2.4906,-2.4906,0,0,-2.4557,-2.4581,-2.4599,-2.4643,-2.4663,-2.4694,-2.4684,-2.4716,-2.4739,-2.4742,-2.4783,-2.4798,-2.4828,-2.4872,-2.4892,-2.4886,-2.4958,-2.4938,-2.494,-2.4943,-2.4969,-2.4975,-2.498,-2.4908,-2.4907,-2.4907,0,0,-2.4595,-2.4615,-2.4649,-2.467,-2.4701,-2.4715,-2.4723,-2.4754,-2.4765,-2.4806,-2.4809,-2.4837,-2.4888,-2.491,-2.4927,-2.4974,-2.4975,-2.4983,-2.5004,-2.503,-2.5035,-2.5039,-2.5057,-2.5064,-2.4988,-2.4988,-2.4988,0,-2.4606,-2.4652,-2.4665,-2.4699,-2.4719,-2.4723,-2.4757,-2.4777,-2.4816,-2.4829,-2.4821,-2.4887,-2.4907,-2.4957,-2.4969,-2.4983,-2.4993,-2.498,-2.5033,-2.5038,-2.5042,-2.506,-2.5066,-2.4989,-2.4988,-2.4988,-2.4988,0,-2.4665,-2.4697,-2.472,-2.4759,-2.4781,-2.4815,-2.4833,-2.4854,-2.486,-2.4875,-2.4918,-2.4942,-2.4977,-2.4989,-2.4994,-2.504,-2.5036,-2.503,-2.5016,-2.5049,-2.5066,-2.5073,-2.499,-2.499,-2.4989,-2.4989,0,0,-2.4704,-2.4751,-2.4759,-2.4778,-2.4813,-2.4839,-2.4873,-2.4908,-2.4926,-2.4953,-2.4982,-2.5027,-2.5023,-2.5043,-2.5051,-2.5073,-2.5111,-2.5065,-2.5066,-2.5074,-2.5164,-2.5169,-2.5176,-2.5111,-2.5113,-2.5114,-2.5162,0,-2.4747,-2.4808,-2.4822,-2.4875,-2.4905,-2.4911,-2.4941,-2.4966,-2.4981,-2.5009,-2.5025,-2.5057,-2.5048,-2.5061,-2.5084,-2.5102,-2.5129,-2.5098,-2.5139,-2.5141,-2.5133,-2.5185,-2.5189,-2.5234,-2.5169,-2.517,-2.5171,0,-2.4804,-2.4834,-2.489,-2.4923,-2.4937,-2.4963,-2.4997,-2.5024,-2.5053,-2.5062,-2.5086,-2.5092,-2.5128,-2.5112,-2.5162,-2.5141,-2.5158,-2.517,-2.5172,-2.5177,-2.5158,-2.5192,-2.5248,-2.5255,-2.5181,-2.518,-2.5179,0,-2.4829,-2.4883,-2.4924,-2.4939,-2.4978,-2.4997,-2.5014,-2.5042,-2.5063,-2.5093,-2.5106,-2.5139,-2.5158,-2.5183,-2.5198,-2.5185,-2.5248,-2.5233,-2.5257,-2.5257,-2.5271,-2.527,-2.5332,-2.5281,-2.5281,-2.5281,-2.528,0,-2.4875,-2.491,-2.4936,-2.4961,-2.5001,-2.5016,-2.5054,-2.5071,-2.5096,-2.5125,-2.5131,-2.5158,-2.5176,-2.5206,-2.5218,-2.5259,-2.5267,-2.5275,-2.5278,-2.5276,-2.5275,-2.5288,-2.5285,-2.5282,-2.5282,-2.5282,-2.5281,0,-2.491,-2.4928,-2.4974,-2.5008,-2.5017,-2.5045,-2.5074,-2.5099,-2.5114,-2.5151,-2.516,-2.5184,-2.522,-2.5238,-2.5281,-2.5289,-2.5336,-2.5336,-2.5326,-2.5328,-2.5352,-2.535,-2.5425,-2.5436,-2.5377,-2.5377,-2.5378,0,-2.4938,-2.4965,-2.5003,-2.5023,-2.5041,-2.5073,-2.5095,-2.5111,-2.5133,-2.5169,-2.519,-2.5226,-2.5256,-2.5312,-2.5333,-2.5367,-2.5369,-2.5393,-2.5374,-2.5371,-2.5371,-2.5369,-2.5373,-2.5397,-2.5397,-2.5398,-2.5398,0,-2.4988,-2.4996,-2.5027,-2.5062,-2.5088,-2.5116,-2.5144,-2.516,-2.5181,-2.5205,-2.5242,-2.5265,-2.5311,-2.5347,-2.5382,-2.54,-2.5403,-2.5404,-2.5412,-2.5409,-2.5403,-2.5408,-2.5337,-2.5402,-2.5402,-2.5402,-2.5401,-2.5401,-2.5021,-2.5046,-2.5077,-2.5111,-2.5134,-2.516,-2.5186,-2.5205,-2.5236,-2.5275,-2.5283,-2.5322,-2.5352,-2.54,-2.5419,-2.545,-2.5445,-2.5455,-2.5458,-2.5461,-2.5463,-2.5398,-2.5456,-2.5456,-2.5456,-2.5456,-2.5456,0,-2.5072,-2.5092,-2.5124,-2.5163,-2.5191,-2.5192,-2.5223,-2.5246,-2.5281,-2.5308,-2.5338,-2.5381,-2.5416,-2.5441,-2.5476,-2.5497,-2.5499,-2.5506,-2.5505,-2.5509,-2.5465,-2.5455,-2.5503,-2.5503,-2.5503,-2.5503,-2.5503,-2.5503,-2.5101,-2.5144,-2.5156,-2.5211,-2.523,-2.527,-2.5288,-2.5312,-2.5334,-2.5382,-2.5412,-2.5428,-2.5455,-2.5493,-2.5525,-2.5532,-2.5545,-2.5552,-2.5558,-2.5517,-2.5512,-2.5507,-2.5498,-2.5554,-2.5555,-2.56,-2.56,-2.5601]}]]